Location: Lancaster
(34.6980°N, 118.1360°W)
Time: 02:05:55
(UTC-07:00)

Vanguard 2 Rocket - All Passes

Search period start: 22 July 2018 00:00
Search period end: 01 August 2018 00:00
Orbit: 554 x 3327 km, 32.9° (Epoch: 21 July)

Date Brightness Start Highest point End Pass type
(mag) Time Alt. Az. Time Alt. Az. Time Alt. Az.
22 Jul - 01:12:41 10° SSW 01:16:15 24° SE 01:20:59 10° E visible
22 Jul - 03:23:17 10° WSW 03:28:42 71° SSE 03:38:12 10° E visible
22 Jul - 05:35:18 10° W 05:42:53 76° S 05:56:50 10° ESE daylight
22 Jul - 07:48:11 10° W 07:58:21 51° SSW 08:15:02 10° SE daylight
22 Jul - 10:03:59 10° W 10:14:48 25° SW 10:28:43 10° SSE daylight
23 Jul - 00:15:44 10° SSE 00:17:25 12° SE 00:19:14 10° ESE night (unlit)
23 Jul - 02:24:42 10° WSW 02:29:20 56° SSE 02:36:46 10° E visible
23 Jul - 04:36:26 10° W 04:42:49 80° S 04:54:31 10° E visible
23 Jul - 06:48:50 10° W 06:57:38 59° SSW 07:13:04 10° SE daylight
23 Jul - 09:03:05 10° W 09:13:38 32° SSW 09:28:39 10° SSE daylight
24 Jul - 01:26:17 10° SW 01:30:14 37° SSE 01:35:48 10° E visible
24 Jul - 03:37:40 10° W 03:43:05 78° S 03:52:36 10° E visible
24 Jul - 05:49:46 10° W 05:57:16 66° SSW 06:10:54 10° ESE daylight
24 Jul - 08:03:00 10° W 08:12:40 38° SSW 08:27:46 10° SE daylight
24 Jul - 10:21:27 10° WSW 10:29:04 15° SW 10:38:03 10° S daylight
25 Jul - 00:28:10 10° SSW 00:31:19 22° SSE 00:35:04 10° E night (unlit)
25 Jul - 02:38:59 10° WSW 02:43:37 70° S 02:51:12 10° E visible
25 Jul - 04:50:52 10° W 04:57:13 73° S 05:08:47 10° ESE visible
25 Jul - 07:03:28 10° W 07:11:59 45° SSW 07:26:20 10° SE daylight
25 Jul - 09:19:07 10° WSW 09:27:57 21° SSW 09:39:34 10° S daylight
25 Jul - 23:30:56 10° S 23:32:23 12° SSE 23:33:53 10° SE night (unlit)
26 Jul - 01:40:21 10° WSW 01:44:25 54° SSE 01:50:19 10° E visible
26 Jul - 03:52:06 10° W 03:57:30 77° S 04:06:58 10° E visible
26 Jul - 06:04:17 10° W 06:11:38 53° SSW 06:24:36 10° SE daylight
26 Jul - 08:18:21 10° W 08:27:02 27° SSW 08:39:38 10° SSE daylight
27 Jul - 00:41:47 10° SW 00:45:24 35° SSE 00:49:54 10° E night (unlit)
27 Jul - 02:53:22 10° W 02:58:01 76° S 03:05:36 10° E visible
27 Jul - 05:05:21 10° W 05:11:37 60° SSW 05:22:50 10° ESE visible
27 Jul - 07:18:25 10° W 07:26:23 33° SSW 07:38:55 10° SSE daylight
27 Jul - 09:37:54 10° SW 09:42:25 12° SSW 09:47:32 10° SSW daylight
27 Jul - 23:43:22 10° SSW 23:46:28 22° SSE 23:49:43 10° ESE night (unlit)
28 Jul - 01:54:37 10° WSW 01:58:45 68° S 02:04:46 10° E visible
28 Jul - 04:06:33 10° W 04:11:54 67° S 04:21:14 10° ESE visible
28 Jul - 06:19:01 10° W 06:26:03 39° SSW 06:37:47 10° SE daylight
28 Jul - 08:34:54 10° WSW 08:41:30 17° SSW 08:50:00 10° S daylight
28 Jul - 22:45:25 10° S 22:47:25 13° SSE 22:49:22 10° ESE night (unlit)
29 Jul - 00:55:50 10° WSW 00:59:40 52° SSE 01:04:27 10° E visible
29 Jul - 03:07:48 10° W 03:12:26 73° S 03:19:58 10° ESE visible
29 Jul - 05:19:56 10° W 05:26:02 45° SSW 05:36:29 10° SE visible
29 Jul - 07:34:03 10° WSW 07:40:52 22° SSW 07:50:31 10° SSE daylight
29 Jul - 23:57:00 10° SW 00:00:40 36° SSE 00:04:33 10° E night (unlit)
30 Jul - 02:09:02 10° W 02:13:10 74° S 02:19:11 10° E visible
30 Jul - 04:21:04 10° W 04:26:19 53° SSW 04:35:15 10° ESE visible
30 Jul - 06:34:09 10° WSW 06:40:32 26° SSW 06:50:13 10° SSE daylight
30 Jul - 22:58:09 10° SSW 23:01:39 24° SSE 23:04:53 10° ESE night (unlit)
31 Jul - 01:10:08 10° WSW 01:14:02 67° S 01:18:54 10° E visible
31 Jul - 03:22:16 10° W 03:26:51 61° S 03:34:13 10° ESE visible
31 Jul - 05:34:46 10° W 05:40:30 31° SSW 05:49:35 10° SE visible
31 Jul - 07:51:49 10° SW 07:55:28 12° SSW 07:59:44 10° S daylight
31 Jul - 21:59:23 10° SSW 22:02:30 17° SSE 22:05:13 10° ESE visible
